Regional Weather Roundup
Issued by NWS

Home | Current Version | Previous Version | Graphics & Text | Print | Product List | Glossary On
Versions: 1 2 3 4 5 6 7 8 9 10 11 12 13 14 15 16 17 18 19 20 21 22 23 24 25 26 27 28 29 30 31 32 33 34 35 36 37 38 39 40 41 42 43 44 45 46 47 48 49 50
000
ASUS45 KBOI 291510
RWRID
WEATHER ROUNDUP FOR IDAHO
NATIONAL WEATHER SERVICE BOISE ID
900 AM MDT SUN MAR 29 2015

NOTE: "FAIR" INDICATES FEW OR NO CLOUDS BELOW 12000 FEET
WITH NO SIGNIFICANT WEATHER AND/OR OBSTRUCTIONS TO VISIBILITY

IDZ012-014-291600-
SOUTHWEST IDAHO


CITY           SKY/WX    TMP DP  RH WIND       PRES   REMARKS
BOISE          PTSUNNY   42  28  57 CALM      30.33R
CALDWELL       PTSUNNY   36  25  64 SE3       30.34S
$$

IDZ016-017-291600-
SOUTHCENTRAL IDAHO


CITY           SKY/WX    TMP DP  RH WIND       PRES   REMARKS
BURLEY         SUNNY     36  22  56 CALM      30.33R
JEROME         SUNNY     39  24  55 E7        30.33R WCI  34
TWIN FALLS     SUNNY     44  24  45 NE3       30.33R
$$

IDZ019>023-291600-
SOUTHEAST IDAHO


CITY           SKY/WX    TMP DP  RH WIND       PRES   REMARKS
IDAHO FALLS    PTSUNNY   34  24  67 N3        30.35S
POCATELLO      SUNNY     37  21  52 CALM      30.35R
REXBURG        PTSUNNY   31  22  69 NE5       30.36S WCI  26
$$

IDZ006-010-011-018-031-032-291600-
CENTRAL IDAHO MOUNTAINS


CITY           SKY/WX    TMP DP  RH WIND       PRES   REMARKS
MCCALL         PTSUNNY   30  26  85 CALM      30.31S
HAILEY         MOSUNNY   36  19  51 NW13      30.35S WCI  27
STANLEY          N/A     28  22  78 CALM      30.36S
SALMON         MOSUNNY   28  27  93 CALM      30.38R
CHALLIS        SUNNY     33  22  63 NE3       30.35R
$$

IDZ002-004-006-007-026-291600-
NORTHERN IDAHO


CITY           SKY/WX    TMP DP  RH WIND       PRES   REMARKS
LEWISTON       CLOUDY    45  38  76 E7        30.30S
LOWELL           N/A     42  37  82 CALM      30.38F
COEUR D`ALENE  MOSUNNY   41  36  81 CALM      30.29R
MULLAN PASS    MOSUNNY   31  28  89 VRB5      30.25R WCI  26
$$



USA.gov is the U.S. government's official web portal to all federal, state and local government web resources and services.